[[{"header":{"parameterUnit":"m.s-1","parameterCategory":1,"la1":30.2991,"la2":30.254,"lo1":-89.0895,"lo2":-89.0444,"dy":0.0017,"dx":0.0017,"nx":28,"ny":28,"refTime":"2025-12-22T09:00:00:Z","depth":0,"parameterNumber":2,"parameterNumberName":"U-component_of_WINDS"},"data":[0,0,0,0,0,0,0,0,0,0,0,0,0,0,0,0,0,0,0,0,0,0,0,0,0,0,0,0,0,0,0,0,0,0,0,0,0,0,0,0,0,0,0,0,0,0,0,0,0,0,0,0,0,0,0,0,0,0,-3.4759,-3.476,0,-3.4803,-3.4804,-3.4804,-3.4761,-3.4759,-3.4757,-3.4756,-3.4801,-3.4804,-3.4807,0,0,0,0,0,0,0,0,0,0,0,0,0,-3.4639,-3.4642,-3.4759,-3.476,-3.476,-3.4803,-3.4804,-3.4804,-3.4761,-3.4759,-3.4757,-3.4755,-3.48,-3.4804,-3.4807,0,0,0,0,0,0,0,0,0,0,0,0,0,-3.4688,-3.4643,-3.4759,-3.4744,-3.4743,-3.4803,-3.4804,-3.4804,-3.4761,-3.4759,-3.4756,-3.4754,-3.4799,-3.4803,-3.4808,-3.4885,0,0,-3.482,-3.4822,0,0,0,0,0,0,0,0,-3.4685,-3.4693,-3.4746,-3.4745,-3.4744,-3.4774,-3.4778,-3.4831,-3.4762,-3.4754,-3.4756,-3.4753,-3.4794,-3.4799,-3.4813,-3.4887,-3.4889,-3.4821,-3.4823,-3.4825,-3.4826,0,0,0,0,0,0,0,-3.4682,-3.469,-3.4777,-3.4746,-3.4746,-3.4735,-3.4739,-3.4788,-3.4788,-3.4755,-3.4752,-3.4758,-3.4793,-3.4809,-3.4813,-3.489,-3.4821,-3.4824,-3.4827,-3.4829,-3.503,-3.5033,0,0,0,0,0,0,-3.468,-3.4688,-3.4775,-3.4778,-3.4708,-3.474,-3.4744,-3.4767,-3.4788,-3.4788,-3.476,-3.4755,-3.4803,-3.4808,-3.4815,-3.4907,-3.4825,-3.4829,-3.4831,-3.5028,-3.5031,-3.5034,0,0,0,0,0,0,-3.4678,-3.4688,-3.4773,-3.4732,-3.4742,-3.4744,-3.477,-3.4769,-3.4784,-3.4791,-3.4791,-3.4775,-3.4801,-3.4809,-3.4868,-3.4908,-3.4831,-3.4835,-3.5024,-3.5029,-3.5033,-3.5091,0,0,0,0,0,0,-3.4675,-3.4688,-3.4717,-3.4733,-3.4745,-3.4825,-3.4773,-3.4772,-3.4792,-3.4786,-3.4806,-3.4806,-3.48,-3.4862,-3.4872,-3.4912,-3.4838,-3.5021,-3.5026,-3.5031,-3.5086,-3.5097,-3.5107,0,0,0,0,0,-3.467,-3.4732,-3.4719,-3.4729,-3.4781,-3.4828,-3.4834,-3.4825,-3.4795,-3.4824,-3.4829,-3.4806,-3.4902,-3.4868,-3.4879,-3.4921,-3.5018,-3.5025,-3.5031,-3.5081,-3.5095,-3.5107,0,0,0,0,0,0,-3.472,-3.4734,-3.4719,-3.4787,-3.4807,-3.482,-3.4857,-3.484,-3.4868,-3.4862,-3.4849,-3.4854,-3.4917,-3.4925,-3.4887,-3.4998,-3.4955,-3.4964,-3.499,-3.5003,-3.5013,-3.5009,-3.4842,0,0,0,0,0,-3.4739,-3.4776,-3.4786,-3.4845,-3.4856,-3.4855,-3.4875,-3.4866,-3.4886,-3.4894,-3.4903,-3.4923,-3.4958,-3.4981,-3.5013,-3.5087,-3.5091,-3.5122,-3.5132,-3.5141,-3.5148,-3.5189,-3.5202,-3.5055,-3.5055,-3.5055,0,0,-3.4778,-3.479,-3.4814,-3.4855,-3.4869,-3.4908,-3.4862,-3.4905,-3.4933,-3.49,-3.4956,-3.4964,-3.4986,-3.5053,-3.5083,-3.5062,-3.519,-3.5149,-3.5156,-3.5159,-3.5197,-3.521,-3.5223,-3.5059,-3.5059,-3.5058,0,0,-3.4869,-3.4882,-3.4933,-3.4948,-3.497,-3.497,-3.4982,-3.4999,-3.5002,-3.5058,-3.5035,-3.5069,-3.5129,-3.5146,-3.5162,-3.5261,-3.5241,-3.5272,-3.5326,-3.5366,-3.5377,-3.5388,-3.5423,-3.5436,-3.528,-3.528,-3.528,0,-3.4915,-3.4972,-3.4962,-3.5006,-3.5025,-3.4997,-3.5049,-3.5065,-3.5096,-3.511,-3.5086,-3.5161,-3.5174,-3.5245,-3.5269,-3.5283,-3.5297,-3.5269,-3.5376,-3.5387,-3.5396,-3.5429,-3.5443,-3.5284,-3.5283,-3.5283,-3.5283,0,-3.5028,-3.5068,-3.5107,-3.5138,-3.5161,-3.5209,-3.5206,-3.5231,-3.5221,-3.5223,-3.5281,-3.5296,-3.5331,-3.5347,-3.5337,-3.5417,-3.5403,-3.5378,-3.5335,-3.5414,-3.5445,-3.5458,-3.5289,-3.5288,-3.5287,-3.5286,0,0,-3.515,-3.5176,-3.519,-3.5204,-3.5227,-3.5258,-3.5305,-3.5339,-3.5361,-3.5384,-3.5424,-3.5476,-3.5453,-3.5472,-3.5464,-3.5499,-3.5576,-3.5469,-3.547,-3.5488,-3.5665,-3.5683,-3.5698,-3.5563,-3.5566,-3.5568,-3.5663,0,-3.5242,-3.5323,-3.5316,-3.5393,-3.543,-3.5405,-3.5446,-3.5465,-3.5469,-3.5501,-3.5505,-3.5542,-3.551,-3.5521,-3.5554,-3.556,-3.5611,-3.5553,-3.56,-3.5602,-3.5595,-3.5714,-3.5733,-3.5822,-3.5675,-3.5677,-3.5679,0,-3.5359,-3.5387,-3.5468,-3.5486,-3.5501,-3.5538,-3.5569,-3.56,-3.5621,-3.5622,-3.5643,-3.563,-3.5678,-3.5635,-3.5701,-3.5661,-3.5681,-3.5687,-3.569,-3.5693,-3.5644,-3.572,-3.585,-3.5863,-3.5698,-3.5696,-3.5695,0,-3.544,-3.5497,-3.5553,-3.5566,-3.5588,-3.5615,-3.5626,-3.5644,-3.5666,-3.5693,-3.5707,-3.574,-3.5758,-3.5784,-3.578,-3.5749,-3.5848,-3.5804,-3.585,-3.585,-3.5871,-3.5869,-3.6005,-3.5884,-3.5884,-3.5884,-3.5884,0,-3.5543,-3.5593,-3.559,-3.5624,-3.5681,-3.5672,-3.5728,-3.5735,-3.5752,-3.5788,-3.5769,-3.5803,-3.5796,-3.583,-3.5828,-3.5883,-3.5891,-3.5893,-3.5892,-3.5895,-3.5894,-3.5906,-3.59,-3.5887,-3.5887,-3.5886,-3.5885,0,-3.5642,-3.5642,-3.5701,-3.5717,-3.5723,-3.5764,-3.5778,-3.5811,-3.5813,-3.5859,-3.5869,-3.5873,-3.5913,-3.5912,-3.5956,-3.5955,-3.6023,-3.6014,-3.6015,-3.6013,-3.6059,-3.6054,-3.6206,-3.6226,-3.6093,-3.6094,-3.6096,0,-3.5707,-3.5745,-3.5766,-3.5789,-3.5801,-3.5837,-3.5859,-3.5853,-3.5876,-3.5904,-3.5933,-3.5971,-3.6001,-3.6065,-3.6072,-3.6107,-3.6099,-3.615,-3.6104,-3.6105,-3.6099,-3.6097,-3.61,-3.6158,-3.616,-3.6161,-3.6162,0,-3.5822,-3.5821,-3.5852,-3.5885,-3.5912,-3.5937,-3.596,-3.598,-3.5976,-3.6003,-3.6043,-3.6066,-3.6112,-3.615,-3.6183,-3.6195,-3.6178,-3.6177,-3.6189,-3.6192,-3.6191,-3.6191,-3.6039,-3.6173,-3.6172,-3.6171,-3.617,-3.617,-3.5906,-3.5939,-3.5959,-3.5996,-3.6012,-3.6035,-3.6066,-3.6073,-3.6106,-3.6143,-3.6138,-3.6182,-3.6204,-3.6246,-3.6261,-3.6296,-3.6278,-3.6296,-3.6301,-3.6305,-3.631,-3.6186,-3.6303,-3.6302,-3.6302,-3.6302,-3.6301,0,-3.602,-3.6032,-3.6066,-3.6099,-3.6128,-3.611,-3.6135,-3.616,-3.62,-3.6221,-3.6251,-3.6297,-3.6334,-3.6345,-3.6381,-3.6407,-3.64,-3.6417,-3.6414,-3.6417,-3.6324,-3.631,-3.6421,-3.6421,-3.6421,-3.6421,-3.6421,-3.6421,-3.6083,-3.6138,-3.6139,-3.6202,-3.6214,-3.6257,-3.6273,-3.6294,-3.6311,-3.6363,-3.6394,-3.6401,-3.6418,-3.6455,-3.6488,-3.649,-3.6504,-3.6524,-3.6523,-3.6436,-3.6424,-3.6412,-3.6398,-3.6527,-3.6527,-3.6613,-3.6614,-3.6614]},{"header":{"parameterUnit":"m.s-1","parameterCategory":1,"la1":30.2991,"la2":30.254,"lo1":-89.0895,"lo2":-89.0444,"dy":0.0017,"dx":0.0017,"nx":28,"ny":28,"refTime":"2025-12-22T09:00:00:Z","depth":0,"parameterNumber":3,"parameterNumberName":"V-component_of_WINDS"},"data":[0,0,0,0,0,0,0,0,0,0,0,0,0,0,0,0,0,0,0,0,0,0,0,0,0,0,0,0,0,0,0,0,0,0,0,0,0,0,0,0,0,0,0,0,0,0,0,0,0,0,0,0,0,0,0,0,0,0,0.5251,0.5252,0,0.5267,0.5268,0.5268,0.5288,0.5288,0.5288,0.5289,0.5304,0.5304,0.5304,0,0,0,0,0,0,0,0,0,0,0,0,0,0.5238,0.5238,0.5251,0.5252,0.5252,0.5267,0.5268,0.5268,0.5288,0.5288,0.5288,0.5289,0.5304,0.5304,0.5304,0,0,0,0,0,0,0,0,0,0,0,0,0,0.5248,0.5238,0.5251,0.5264,0.5265,0.5267,0.5268,0.5268,0.5287,0.5288,0.5288,0.5289,0.5304,0.5304,0.5304,0.5295,0,0,0.5304,0.5304,0,0,0,0,0,0,0,0,0.5247,0.5248,0.5262,0.5263,0.5264,0.5276,0.5269,0.5277,0.5287,0.5279,0.5289,0.5289,0.5294,0.5295,0.5297,0.5296,0.5297,0.5304,0.5304,0.5304,0.5305,0,0,0,0,0,0,0,0.5247,0.5248,0.5258,0.5262,0.5263,0.5268,0.527,0.527,0.5283,0.528,0.5281,0.5283,0.5295,0.5297,0.5297,0.5297,0.5304,0.5304,0.5305,0.5305,0.5293,0.5292,0,0,0,0,0,0,0.5244,0.5247,0.5257,0.5258,0.5257,0.5268,0.527,0.5272,0.5284,0.5286,0.5282,0.5284,0.5296,0.5297,0.5298,0.529,0.5304,0.5305,0.5305,0.5293,0.5292,0.5292,0,0,0,0,0,0,0.5244,0.5245,0.5257,0.5253,0.5255,0.5268,0.5269,0.5272,0.5274,0.5286,0.5288,0.5282,0.5297,0.5298,0.5297,0.5291,0.5305,0.5305,0.5293,0.5293,0.5292,0.5274,0,0,0,0,0,0,0.5243,0.5245,0.5241,0.5253,0.5255,0.5254,0.5269,0.5272,0.5274,0.5276,0.5286,0.5288,0.5297,0.5296,0.5297,0.5292,0.5305,0.5294,0.5293,0.5292,0.5275,0.5273,0.5271,0,0,0,0,0,0.5243,0.5235,0.5241,0.5242,0.5251,0.5254,0.5255,0.5266,0.5273,0.5271,0.5279,0.5288,0.5292,0.5296,0.5297,0.5291,0.5294,0.5293,0.5292,0.5276,0.5273,0.5271,0,0,0,0,0,0,0.5221,0.5236,0.5243,0.5239,0.5245,0.5257,0.5254,0.5263,0.5267,0.5268,0.5281,0.5284,0.5281,0.5286,0.529,0.5285,0.5295,0.5294,0.5282,0.5279,0.5277,0.5276,0.5305,0,0,0,0,0,0.5216,0.5217,0.523,0.5225,0.5228,0.524,0.5242,0.525,0.5257,0.526,0.5268,0.5274,0.5277,0.5278,0.5281,0.5276,0.528,0.5273,0.5271,0.5269,0.5269,0.5268,0.5266,0.5289,0.5289,0.5289,0,0,0.5204,0.5213,0.5213,0.5221,0.5227,0.5228,0.5242,0.5243,0.5244,0.526,0.526,0.5266,0.5274,0.5271,0.527,0.5275,0.5263,0.5268,0.5267,0.5267,0.5267,0.5265,0.5263,0.5288,0.5288,0.5289,0,0,0.5185,0.5191,0.5188,0.5195,0.5204,0.5213,0.5212,0.5224,0.5229,0.5229,0.5242,0.5244,0.5248,0.5254,0.5257,0.5243,0.5252,0.5244,0.5232,0.5232,0.523,0.5229,0.5225,0.5223,0.5243,0.5243,0.5243,0,0.517,0.5173,0.5186,0.5186,0.519,0.5206,0.5203,0.5209,0.5218,0.5221,0.5226,0.5234,0.524,0.524,0.5237,0.5239,0.5239,0.5242,0.523,0.5228,0.5227,0.5224,0.5222,0.5242,0.5242,0.5242,0.5242,0,0.5154,0.5156,0.5153,0.5163,0.5167,0.5166,0.5179,0.5181,0.519,0.5198,0.52,0.5208,0.5214,0.5215,0.5222,0.5216,0.522,0.5227,0.5237,0.5224,0.5221,0.5219,0.524,0.5241,0.5241,0.5241,0,0,0.512,0.514,0.5138,0.5144,0.5157,0.5159,0.5159,0.5166,0.5168,0.5175,0.5176,0.5181,0.5189,0.5193,0.5202,0.5201,0.5192,0.5209,0.521,0.5207,0.5187,0.5182,0.518,0.5198,0.5197,0.5197,0.5187,0,0.5103,0.5106,0.5119,0.5117,0.512,0.5136,0.5137,0.5145,0.5154,0.5158,0.5167,0.517,0.518,0.5183,0.5183,0.5193,0.5188,0.5193,0.52,0.52,0.5198,0.5178,0.5172,0.5162,0.5186,0.5186,0.5185,0,0.5084,0.5091,0.5091,0.5106,0.5107,0.5108,0.5117,0.512,0.513,0.5136,0.5142,0.5153,0.5155,0.5164,0.5168,0.5172,0.5176,0.5181,0.5181,0.5182,0.5192,0.518,0.5159,0.5157,0.5184,0.5184,0.5184,0,0.5061,0.507,0.5072,0.5076,0.5093,0.5093,0.51,0.5111,0.5115,0.5123,0.5126,0.5134,0.5138,0.5144,0.5156,0.5162,0.516,0.5169,0.5166,0.5165,0.5164,0.5164,0.5144,0.5165,0.5165,0.5166,0.5166,0,0.5041,0.5041,0.5062,0.5063,0.5063,0.5078,0.5078,0.5087,0.5097,0.51,0.5114,0.5117,0.5133,0.5138,0.5148,0.5151,0.5152,0.5158,0.516,0.5157,0.5156,0.5159,0.5161,0.5165,0.5165,0.5165,0.5165,0,0.5015,0.5029,0.5032,0.5049,0.5053,0.5053,0.5067,0.5069,0.5079,0.5083,0.5085,0.5101,0.5108,0.5121,0.5131,0.5138,0.5139,0.5143,0.5136,0.5137,0.5133,0.5134,0.5115,0.5114,0.5135,0.5135,0.5135,0,0.5002,0.5002,0.502,0.5023,0.503,0.5036,0.5041,0.5056,0.5061,0.5074,0.5075,0.5083,0.509,0.5101,0.5113,0.5121,0.5126,0.5119,0.5128,0.5125,0.5128,0.5128,0.5128,0.5117,0.5117,0.5117,0.5117,0,0.4978,0.4985,0.4992,0.5002,0.5008,0.5017,0.5026,0.5028,0.5046,0.505,0.5058,0.5064,0.5076,0.5084,0.5094,0.5102,0.5113,0.5114,0.5114,0.511,0.5106,0.511,0.5131,0.5114,0.5115,0.5115,0.5115,0.5115,0.4958,0.496,0.4973,0.4981,0.499,0.4999,0.5002,0.5014,0.5021,0.5032,0.5041,0.5048,0.506,0.5076,0.5083,0.5089,0.5094,0.5093,0.5093,0.5093,0.5092,0.5105,0.5091,0.5091,0.5091,0.5091,0.5091,0,0.4936,0.4946,0.4953,0.4966,0.4973,0.4983,0.4994,0.4999,0.5006,0.5017,0.5024,0.5034,0.5043,0.5057,0.5067,0.5069,0.5075,0.5072,0.5072,0.5074,0.5087,0.5086,0.5067,0.5067,0.5067,0.5067,0.5067,0.5067,0.4925,0.4929,0.4939,0.4948,0.4958,0.4966,0.4972,0.498,0.4989,0.5,0.5008,0.5017,0.503,0.5041,0.505,0.5054,0.5057,0.5053,0.5058,0.507,0.5072,0.5075,0.5074,0.5053,0.5053,0.5045,0.5045,0.5045]}]]